[[{"header":{"parameterUnit":"m.s-1","parameterCategory":1,"la1":30.2991,"la2":30.254,"lo1":-89.0895,"lo2":-89.0444,"dy":0.0017,"dx":0.0017,"nx":28,"ny":28,"refTime":"2025-04-29T09:00:00:Z","depth":0,"parameterNumber":2,"parameterNumberName":"U-component_of_WINDS"},"data":[0,0,0,0,0,0,0,0,0,0,0,0,0,0,0,0,0,0,0,0,0,0,0,0,0,0,0,0,0,0,0,0,0,0,0,0,0,0,0,0,0,0,0,0,0,0,0,0,0,0,0,0,0,0,0,0,0,0,-2.9618,-2.9618,0,-2.9615,-2.9615,-2.9615,-2.9573,-2.9572,-2.9571,-2.957,-2.9567,-2.9568,-2.9569,0,0,0,0,0,0,0,0,0,0,0,0,0,-2.9589,-2.959,-2.9618,-2.9618,-2.9618,-2.9615,-2.9615,-2.9615,-2.9573,-2.9572,-2.9571,-2.957,-2.9567,-2.9568,-2.9569,0,0,0,0,0,0,0,0,0,0,0,0,0,-2.9595,-2.959,-2.9618,-2.9597,-2.9595,-2.9615,-2.9615,-2.9615,-2.9574,-2.9572,-2.9571,-2.9569,-2.9567,-2.9568,-2.9569,-2.9609,0,0,-2.9574,-2.9574,0,0,0,0,0,0,0,0,-2.9595,-2.9596,-2.96,-2.9598,-2.9596,-2.9593,-2.9604,-2.9613,-2.9574,-2.9582,-2.957,-2.9568,-2.9577,-2.9578,-2.958,-2.9609,-2.9609,-2.9574,-2.9574,-2.9575,-2.9575,0,0,0,0,0,0,0,-2.9595,-2.9596,-2.9617,-2.96,-2.9598,-2.9588,-2.9587,-2.9605,-2.9588,-2.9581,-2.9578,-2.9578,-2.9576,-2.9579,-2.958,-2.9609,-2.9574,-2.9575,-2.9576,-2.9576,-2.9671,-2.9672,0,0,0,0,0,0,-2.9597,-2.9596,-2.9617,-2.9617,-2.9592,-2.959,-2.9589,-2.9596,-2.9588,-2.9585,-2.958,-2.9576,-2.9578,-2.9579,-2.958,-2.9625,-2.9575,-2.9576,-2.9577,-2.9669,-2.9671,-2.9673,0,0,0,0,0,0,-2.9596,-2.9599,-2.9617,-2.9606,-2.9607,-2.9592,-2.96,-2.9596,-2.96,-2.9587,-2.9584,-2.9586,-2.9576,-2.9578,-2.9602,-2.9625,-2.9577,-2.9578,-2.9667,-2.967,-2.9672,-2.9718,0,0,0,0,0,0,-2.9596,-2.9599,-2.9614,-2.9606,-2.9608,-2.9639,-2.9601,-2.9597,-2.9602,-2.9598,-2.9592,-2.959,-2.9575,-2.9601,-2.9604,-2.9626,-2.9579,-2.9665,-2.9668,-2.9671,-2.9714,-2.9721,-2.9728,0,0,0,0,0,-2.9595,-2.9627,-2.9615,-2.9618,-2.9626,-2.9641,-2.9642,-2.9624,-2.9604,-2.9619,-2.9611,-2.959,-2.9622,-2.9603,-2.9607,-2.9629,-2.9663,-2.9667,-2.9671,-2.9711,-2.972,-2.9728,0,0,0,0,0,0,-2.9638,-2.9626,-2.9612,-2.9643,-2.9643,-2.9634,-2.9652,-2.9635,-2.9641,-2.9636,-2.9615,-2.9614,-2.9642,-2.9638,-2.9617,-2.9668,-2.9639,-2.9644,-2.9669,-2.9677,-2.9684,-2.9683,-2.958,0,0,0,0,0,-2.9651,-2.9664,-2.9653,-2.9681,-2.9682,-2.9667,-2.9673,-2.9659,-2.9659,-2.9659,-2.9653,-2.9653,-2.9663,-2.967,-2.9679,-2.9714,-2.9712,-2.9732,-2.9739,-2.9744,-2.9748,-2.9766,-2.9774,-2.9685,-2.9685,-2.9685,0,0,-2.9678,-2.9673,-2.9682,-2.9689,-2.9688,-2.9702,-2.9667,-2.9683,-2.9693,-2.9661,-2.9683,-2.9679,-2.9678,-2.9708,-2.9721,-2.9706,-2.9772,-2.9749,-2.9754,-2.9754,-2.977,-2.9779,-2.9786,-2.9688,-2.9687,-2.9687,0,0,-2.9734,-2.9732,-2.9755,-2.9754,-2.9753,-2.9743,-2.9749,-2.9742,-2.9738,-2.976,-2.9736,-2.9748,-2.9767,-2.9767,-2.9769,-2.9827,-2.9807,-2.983,-2.9865,-2.9883,-2.989,-2.9896,-2.9915,-2.9923,-2.9834,-2.9835,-2.9835,0,-2.9767,-2.9787,-2.9769,-2.9786,-2.979,-2.9762,-2.9785,-2.9786,-2.9788,-2.9791,-2.9775,-2.9797,-2.9794,-2.9823,-2.9838,-2.9841,-2.9846,-2.983,-2.989,-2.9896,-2.9902,-2.992,-2.9927,-2.9837,-2.9837,-2.9837,-2.9836,0,-2.9828,-2.9842,-2.9861,-2.9863,-2.9869,-2.9889,-2.9874,-2.9883,-2.987,-2.9862,-2.9885,-2.9881,-2.9888,-2.9895,-2.9882,-2.9922,-2.9913,-2.9894,-2.9864,-2.9913,-2.993,-2.9937,-2.9841,-2.984,-2.9839,-2.9839,0,0,-2.9908,-2.9901,-2.9908,-2.9909,-2.9906,-2.9916,-2.9936,-2.9943,-2.995,-2.9953,-2.9968,-2.9985,-2.9967,-2.997,-2.9958,-2.9974,-3.0018,-2.9953,-2.9952,-2.9964,-3.0061,-3.0074,-3.0082,-3.0006,-3.0007,-3.0009,-3.0061,0,-2.9961,-2.9993,-2.9978,-3.0012,-3.0024,-2.9999,-3.0016,-3.0016,-3.0009,-3.0019,-3.0012,-3.0024,-3.0001,-3.0002,-3.0017,-3.0009,-3.0037,-3.0006,-3.0019,-3.002,-3.0018,-3.0091,-3.0105,-3.0154,-3.0067,-3.0068,-3.0069,0,-3.0026,-3.0031,-3.0067,-3.0061,-3.0066,-3.0081,-3.0087,-3.0097,-3.0097,-3.0091,-3.0095,-3.0079,-3.0097,-3.007,-3.0095,-3.0074,-3.0079,-3.0077,-3.0078,-3.0077,-3.0046,-3.0091,-3.017,-3.0176,-3.0079,-3.0079,-3.0078,0,-3.008,-3.0096,-3.0119,-3.0121,-3.0115,-3.0127,-3.0125,-3.0123,-3.0129,-3.0134,-3.0137,-3.0145,-3.0148,-3.0155,-3.0141,-3.0123,-3.0168,-3.014,-3.0163,-3.0164,-3.0172,-3.0172,-3.0251,-3.0179,-3.0179,-3.0179,-3.0178,0,-3.014,-3.0162,-3.0143,-3.0157,-3.0181,-3.0164,-3.0188,-3.0184,-3.0183,-3.0196,-3.0175,-3.0188,-3.017,-3.018,-3.017,-3.0192,-3.0195,-3.019,-3.0187,-3.0191,-3.0191,-3.0193,-3.0188,-3.0181,-3.018,-3.018,-3.0179,0,-3.0203,-3.0191,-3.0214,-3.0208,-3.0207,-3.0225,-3.0219,-3.0232,-3.0225,-3.0241,-3.0244,-3.0232,-3.0244,-3.0232,-3.0242,-3.0236,-3.0265,-3.0258,-3.0265,-3.0262,-3.0286,-3.0283,-3.0368,-3.0377,-3.03,-3.0301,-3.0302,0,-3.0241,-3.0257,-3.0252,-3.0259,-3.0259,-3.0271,-3.0276,-3.026,-3.0267,-3.0268,-3.0281,-3.0291,-3.0298,-3.0318,-3.031,-3.0318,-3.031,-3.0339,-3.0311,-3.0314,-3.0309,-3.0307,-3.0308,-3.0344,-3.0345,-3.0346,-3.0346,0,-3.0309,-3.0302,-3.0311,-3.0317,-3.0324,-3.0329,-3.0332,-3.0339,-3.0323,-3.0331,-3.0343,-3.0348,-3.036,-3.0369,-3.0376,-3.0374,-3.0358,-3.0356,-3.0361,-3.0365,-3.0368,-3.0365,-3.0278,-3.0353,-3.0353,-3.0352,-3.0352,-3.0351,-3.0359,-3.0372,-3.0371,-3.0381,-3.0382,-3.0386,-3.0397,-3.0391,-3.04,-3.0408,-3.0399,-3.0413,-3.0413,-3.0419,-3.042,-3.0431,-3.0418,-3.0427,-3.0429,-3.0431,-3.0434,-3.0368,-3.0432,-3.0432,-3.0432,-3.0431,-3.0431,0,-3.0425,-3.0423,-3.0433,-3.0438,-3.0446,-3.043,-3.0433,-3.044,-3.0453,-3.0454,-3.0462,-3.0475,-3.0485,-3.0479,-3.0487,-3.0497,-3.0489,-3.0499,-3.0498,-3.0497,-3.0445,-3.0438,-3.0505,-3.0505,-3.0505,-3.0505,-3.0505,-3.0505,-3.046,-3.0481,-3.0475,-3.0496,-3.0494,-3.0508,-3.0511,-3.0514,-3.0515,-3.053,-3.0538,-3.0534,-3.0532,-3.0541,-3.0549,-3.0547,-3.055,-3.0563,-3.0558,-3.0508,-3.0501,-3.0494,-3.0488,-3.0564,-3.0564,-3.0609,-3.0609,-3.061]},{"header":{"parameterUnit":"m.s-1","parameterCategory":1,"la1":30.2991,"la2":30.254,"lo1":-89.0895,"lo2":-89.0444,"dy":0.0017,"dx":0.0017,"nx":28,"ny":28,"refTime":"2025-04-29T09:00:00:Z","depth":0,"parameterNumber":3,"parameterNumberName":"V-component_of_WINDS"},"data":[0,0,0,0,0,0,0,0,0,0,0,0,0,0,0,0,0,0,0,0,0,0,0,0,0,0,0,0,0,0,0,0,0,0,0,0,0,0,0,0,0,0,0,0,0,0,0,0,0,0,0,0,0,0,0,0,0,0,3.8314,3.8314,0,3.8333,3.8333,3.8334,3.8324,3.8324,3.8323,3.8323,3.834,3.8341,3.8342,0,0,0,0,0,0,0,0,0,0,0,0,0,3.8268,3.8269,3.8314,3.8314,3.8315,3.8333,3.8333,3.8334,3.8324,3.8324,3.8323,3.8323,3.834,3.8341,3.8342,0,0,0,0,0,0,0,0,0,0,0,0,0,3.8288,3.827,3.8314,3.8312,3.8312,3.8333,3.8333,3.8334,3.8325,3.8324,3.8323,3.8322,3.8339,3.8341,3.8342,3.8365,0,0,3.8346,3.8347,0,0,0,0,0,0,0,0,3.8287,3.8289,3.8312,3.8313,3.8313,3.8326,3.8323,3.8344,3.8325,3.832,3.8323,3.8322,3.8336,3.8337,3.8342,3.8366,3.8366,3.8346,3.8347,3.8348,3.8348,0,0,0,0,0,0,0,3.8285,3.8289,3.8322,3.8313,3.8313,3.831,3.8312,3.8327,3.8331,3.832,3.832,3.8322,3.8336,3.8341,3.8343,3.8367,3.8346,3.8347,3.8348,3.8349,3.841,3.841,0,0,0,0,0,0,3.8284,3.8288,3.8321,3.8322,3.8298,3.8312,3.8314,3.8322,3.8331,3.8332,3.8323,3.8322,3.8339,3.8341,3.8343,3.837,3.8348,3.8349,3.835,3.8409,3.841,3.8411,0,0,0,0,0,0,3.8283,3.8287,3.832,3.8305,3.8309,3.8313,3.8323,3.8323,3.8328,3.8333,3.8334,3.8328,3.8339,3.8341,3.836,3.8371,3.835,3.8351,3.8408,3.8409,3.841,3.8425,0,0,0,0,0,0,3.8282,3.8287,3.8296,3.8305,3.831,3.8337,3.8323,3.8324,3.8331,3.833,3.8338,3.8339,3.8338,3.8358,3.8361,3.8372,3.8352,3.8407,3.8409,3.841,3.8424,3.8427,3.8429,0,0,0,0,0,3.8281,3.8299,3.8297,3.8301,3.8321,3.8338,3.834,3.834,3.8332,3.8341,3.8344,3.8338,3.8369,3.836,3.8363,3.8375,3.8406,3.8408,3.841,3.8422,3.8426,3.8429,0,0,0,0,0,0,3.829,3.83,3.8298,3.8319,3.8328,3.8336,3.8347,3.8344,3.8354,3.8352,3.8351,3.8353,3.8372,3.8376,3.8365,3.8398,3.8387,3.8389,3.8395,3.8398,3.8401,3.8399,3.8353,0,0,0,0,0,3.8295,3.8308,3.8316,3.8334,3.8339,3.8342,3.835,3.8349,3.8357,3.836,3.8365,3.8373,3.8384,3.8392,3.8402,3.8424,3.8426,3.8434,3.8437,3.844,3.8442,3.8453,3.8457,3.8417,3.8417,3.8417,0,0,3.8304,3.8312,3.832,3.8337,3.8343,3.8356,3.8345,3.836,3.8369,3.8362,3.838,3.8384,3.8392,3.8413,3.8422,3.8416,3.8453,3.8442,3.8444,3.8444,3.8456,3.846,3.8463,3.8418,3.8418,3.8418,0,0,3.8329,3.8336,3.8352,3.8359,3.837,3.8372,3.8376,3.8385,3.8387,3.8406,3.8401,3.8412,3.8432,3.8438,3.8444,3.8472,3.8467,3.8476,3.849,3.8502,3.8505,3.8508,3.8517,3.8521,3.8478,3.8478,3.8478,0,3.8339,3.8359,3.8361,3.8376,3.8383,3.8379,3.8395,3.8402,3.8415,3.842,3.8414,3.8439,3.8444,3.8466,3.8473,3.8478,3.8482,3.8474,3.8505,3.8507,3.851,3.8519,3.8523,3.8479,3.8479,3.8479,3.8479,0,3.8371,3.8386,3.8398,3.8412,3.842,3.8436,3.8439,3.8448,3.8447,3.845,3.8468,3.8475,3.8487,3.8493,3.8491,3.8515,3.8511,3.8505,3.8493,3.8515,3.8523,3.8527,3.848,3.848,3.848,3.8479,0,0,3.84,3.8416,3.842,3.8427,3.8439,3.8449,3.8465,3.8478,3.8485,3.8495,3.8507,3.8525,3.852,3.8526,3.8526,3.8536,3.8558,3.8529,3.8529,3.8533,3.8583,3.8587,3.8591,3.8555,3.8556,3.8556,3.8582,0,3.8425,3.8453,3.8455,3.848,3.8493,3.849,3.8504,3.8512,3.8516,3.8527,3.853,3.8543,3.8535,3.8539,3.8549,3.8553,3.8568,3.8551,3.8566,3.8566,3.8563,3.8596,3.86,3.8624,3.8586,3.8586,3.8587,0,3.8457,3.8469,3.8496,3.8506,3.8512,3.8524,3.8536,3.8547,3.8557,3.8559,3.8567,3.8565,3.8581,3.857,3.8591,3.8579,3.8586,3.8589,3.859,3.859,3.8577,3.8596,3.8631,3.8635,3.8592,3.8592,3.8591,0,3.8475,3.8498,3.8517,3.8522,3.8535,3.8544,3.8549,3.8559,3.8566,3.8577,3.8582,3.8594,3.8601,3.861,3.8611,3.8603,3.8632,3.8621,3.8634,3.8634,3.8639,3.8638,3.8675,3.8645,3.8644,3.8644,3.8644,0,3.8502,3.8518,3.8525,3.8536,3.8554,3.8557,3.8574,3.858,3.8588,3.86,3.8598,3.8609,3.8611,3.8622,3.8624,3.8641,3.8644,3.8645,3.8645,3.8645,3.8645,3.8648,3.8646,3.8645,3.8645,3.8645,3.8645,0,3.8524,3.853,3.855,3.8561,3.8565,3.8577,3.8587,3.8597,3.8601,3.8617,3.862,3.8626,3.864,3.8643,3.8658,3.8659,3.8679,3.8678,3.8676,3.8676,3.8688,3.8686,3.8727,3.8732,3.8699,3.8699,3.87,0,3.8541,3.8553,3.8566,3.8575,3.8581,3.8595,3.8603,3.8607,3.8615,3.8628,3.8637,3.8651,3.8661,3.8683,3.8688,3.87,3.8699,3.8712,3.87,3.87,3.8698,3.8697,3.8698,3.8714,3.8714,3.8715,3.8715,0,3.8569,3.8571,3.8584,3.8598,3.8609,3.8619,3.863,3.8636,3.8641,3.8651,3.8665,3.8674,3.8691,3.8704,3.8716,3.8721,3.8719,3.8719,3.8722,3.8721,3.872,3.872,3.8681,3.8717,3.8717,3.8717,3.8717,3.8717,3.8588,3.8599,3.8611,3.8625,3.8634,3.8644,3.8655,3.8661,3.8673,3.8687,3.8688,3.8704,3.8714,3.873,3.8736,3.8748,3.8744,3.8748,3.875,3.8751,3.8751,3.8719,3.875,3.875,3.875,3.875,3.875,0,3.8616,3.8623,3.8637,3.8652,3.8663,3.8662,3.8673,3.8682,3.8696,3.8706,3.8717,3.8734,3.8747,3.8754,3.8767,3.8775,3.8774,3.8778,3.8777,3.8778,3.8755,3.875,3.8779,3.8779,3.8779,3.8779,3.8779,3.8779,3.8631,3.865,3.8654,3.8677,3.8684,3.8701,3.8707,3.8716,3.8724,3.8743,3.8755,3.8759,3.8768,3.8782,3.8793,3.8795,3.8799,3.8804,3.8805,3.8783,3.878,3.8777,3.8773,3.8805,3.8805,3.8827,3.8827,3.8827]}]]